GPS BIII-1

Last updated on Sat Jun 27 2026 00:02:56 GMT+0000 (Coordinated Universal Time)

1 43873U 18109A 26177.15649352 -.00000064 00000+0 00000+0 0 9991 2 43873 55.6873 91.8327 0038420 197.7328 282.2646 2.00562253 55257
UTC large
Height (km)
Speed (km/s)
/
Latitude / Longitude
Inclination (degrees)
Orbital Period (minutes)
Azimuth
Elevation
Range (km)
Doppler Factor

Next 0 passes for location: London (51.5072 / 0.1276)

No passes found over London.
GPS BIII-1